Regional Weather Roundup
Issued by NWS

Home | Current Version | Previous Version | Graphics & Text | Print | Product List | Glossary On
Versions: 1 2 3 4 5 6 7 8 9 10 11 12 13 14 15 16 17 18 19 20 21 22 23 24 25 26 27 28 29 30 31 32 33 34 35 36 37 38 39 40 41 42 43 44 45 46 47 48 49 50
000
ASUS45 KPSR 010600
RWRAZ

PRELIMINARY ARIZONA REGIONAL HOURLY WEATHER ROUNDUP
NATIONAL WEATHER SERVICE PHOENIX AZ
1100 PM MST THU JUL 31 2014

NOTE: FAIR INDICATES FEW OR NO CLOUDS BELOW 12,000 FEET WITH NO
SIGNIFICANT WEATHER AND/OR OBSTRUCTIONS TO VISIBILITY.

AZZ001>003-036-010700-
NORTHWEST ARIZONA

CITY           SKY/WX    TMP DP  RH WIND       PRES   REMARKS
KINGMAN        MOCLDY    83  51  33 SE16      30.03R
6HR MIN TEMP:  83; 6HR MAX TEMP: 100;

$$

AZZ004>008-015-016-018-010700-
NORTH CENTRAL ARIZONA

CITY           SKY/WX    TMP DP  RH WIND       PRES   REMARKS
GRAND CANYON   MOCLDY    56  52  86 NE6       30.32F
6HR MIN TEMP:  54; 6HR MAX TEMP:  68; 6HR PCP:  0.01;

WILLIAMS       CLOUDY    59  52  77 SE7       30.38S
PRESCOTT       LGT RAIN  74  51  44 CALM      30.20S
6HR MIN TEMP:  66; 6HR MAX TEMP:  78; 6HR PCP:  0.05;

FLAGSTAFF      CLOUDY    56  54  93 CALM      30.35S
6HR MIN TEMP:  56; 6HR MAX TEMP:  59; 6HR PCP:  0.07;

PAYSON         MOCLDY    70  54  56 S5        30.22R
PAGE           CLOUDY    79  52  38 SW10      30.12F
6HR MIN TEMP:  74; 6HR MAX TEMP:  94; 6HR PCP:  0.03;

$$

AZZ009>014-017-010700-
NORTHEAST ARIZONA

CITY           SKY/WX    TMP DP  RH WIND       PRES   REMARKS
WINSLOW        NOT AVBL
SAINT JOHNS    CLOUDY    67  58  72 SW3       30.26R
6HR MIN TEMP:  65; 6HR MAX TEMP:  86; 6HR PCP:  0.03;

WINDOW ROCK    CLOUDY    63  55  75 E8        30.32F
6HR MIN TEMP:  63; 6HR MAX TEMP:  68; 6HR PCP: TRACE;

$$

AZZ023-010700-
GREATER PHOENIX AREA

CITY           SKY/WX    TMP DP  RH WIND       PRES   REMARKS
PHOENIX        CLOUDY    96  54  24 NW18G29   29.87R
6HR MIN TEMP:  96; 6HR MAX TEMP: 109;

LUKE AFB       NOT AVBL
DEER VALLEY    CLOUDY    89 EMP: 104;

SCOTTSDALE     MOCLDY    92  55  28 VRB6      29.92R
6HR MIN TEMP:  92; 6HR MAX TEMP: 105;

MESA-GATEWAY   MOCLDY    97  57  26 SW6       29.91R
$$

AZZ027-028-010700-
SOUTHWEST MARICOPA COUNTY AND PINAL COUNTY

CITY           SKY/WX    TMP DP  RH WIND       PRES   REMARKS
CASA GRANDE    CLOUDY    91  61  35 W10       29.92R
6HR MIN TEMP:  91; 6HR MAX TEMP: 104;

$$

AZZ503-504-507>509-010700-
SOUTHEAST ARIZONA

CITY           SKY/WX    TMP DP  RH WIND       PRES   REMARKS
TUCSON         CLOUDY    88  60  38 S7        29.99F
6HR MIN TEMP:  88; 6HR MAX TEMP:  95;

DAVIS-MONTHAN  CLOUDY    87  59  37 SW7       29.99S
6HR MIN TEMP:  87; 6HR MAX TEMP:  93;

NOGALES        CLOUDY    77  59  53 S5        30.11F
6HR MIN TEMP:  76; 6HR MAX TEMP:  93;

SIERRA VISTA   LGT RAIN  79  57  47 NW8G20    30.17S
                                      6HR PCP: TRACE;

SAFFORD        RAIN      76  62  62 E12G21    30.11R
6HR MIN TEMP:  76; 6HR MAX TEMP:  96; 6HR PCP:  0.01;

$$

AZZ020-021-025-026-031-010700-
SOUTHWEST ARIZONA

CITY           SKY/WX    TMP DP  RH WIND       PRES   REMARKS
YUMA           NOT AVBL
$$

CAZ031-033-041-043-047-048-061-010700-
SOUTHERN CALIFORNIA

CITY           SKY/WX    TMP DP  RH WIND       PRES   REMARKS
DOWNTOWN L.A.  CLEAR     68  61  78 CALM      29.92R
6HR MIN TEMP:  68; 6HR MAX TEMP:  81;

L.A. AIRPORT   PTCLDY    67  62  84 SW3       29.92R
6HR MIN TEMP:  67; 6HR MAX TEMP:  73;

SAN DIEGO      MOCLDY    71  63  75 SW5       29.95S
6HR MIN TEMP:  71; 6HR MAX TEMP:  78;

BURBANK        CLEAR     71  60  68 SE10      29.91R
6HR MIN TEMP:  71; 6HR MAX TEMP:  90;

ONTARIO        PTCLDY    77  59  53 W9        29.93R
6HR MIN TEMP:  77; 6HR MAX TEMP:  98;

RIVERSIDE      CLEAR     77  61  57 W6        29.92R
6HR MIN TEMP:  77; 6HR MAX TEMP:  96;

PALM SPRINGS   CLEAR    101  48  16 NW6       29.81R
6HR MIN TEMP: 101; 6HR MAX TEMP: 110;

EL CENTRO NAS  MOCLDY    94  69  44 SE8       29.74R
6HR MIN TEMP:  94; 6HR MAX TEMP: 109;

IMPERIAL       MOCLDY    92  76  59 SE13      29.74R HX 104
6HR MIN TEMP:  92; 6HR MAX TEMP: 109;

BLYTHE           N/A    N/A N/A N/A MISG      29.78R
$$

NVZ020-UTZ003-010700-
SOUTHERN NEVADA-UTAH

CITY           SKY/WX    TMP DP  RH WIND       PRES   REMARKS
LAS VEGAS      NOT AVBL
SALT LAKE CITY CLOUDY    72  54  53 S7        30.13S
6HR MIN TEMP:  72; 6HR MAX TEMP:  83;

$$

NMZ009-TXZ055-010700-
NEW MEXICO-WEST TEXAS

CITY           SKY/WX    TMP DP  RH WIND       PRES   REMARKS
ALBUQUERQUE    CLOUDY    67  52  58 E17       30.28R
6HR MIN TEMP:  65; 6HR MAX TEMP:  80; 6HR PCP:  0.03;

EL PASO        LGT RAIN  77  58  51 SE13G22   30.15R
6HR MIN TEMP:  77; 6HR MAX TEMP:  89; 6HR PCP: TRACE;

$$


........................KEY........................
SKY/WX - SKY CONDITION/WEATHER
TMP    - TEMPERATURE IN FAHRENHEIT
DP     - DEW POINT IN FAHRENHEIT
RH     - RELATIVE HUMIDITY IN PERCENT
WIND   - DIRECTION AND SPEED IN MILES PER HOUR (MPH)
VRB    - VARIABLE WIND DIRECTION
PRES   - MEAN SEA LEVEL PRESSURE IN INCHES OF MERCURY
         F - FALLING PRESSURE   R - RISING PRESSURE
         S - STEADY PRESSURE
VSB    - VISIBILITY IN MILES
HX     - HEAT INDEX IN FAHRENHEIT
WCI    - WIND CHILL INDEX IN FAHRENHEIT
TC     - TEMPERATURE IN CELSIUS WHICH IS ALSO KNOWN AS
         TEMPERATURE IN CENTIGRADE
AFB    - AIR FORCE BASE
         LUKE AFB IS LUKE AIR FORCE BASE
         DAVIS-MONTHAN IS DAVIS-MONTHAN AIR FORCE BASE
NAS    - NAVAL AIR STATION
         EL CENTRO NAS IS EL CENTRO NAVAL AIR STATION
N/A    - NOT AVAILABLE



USA.gov is the U.S. government's official web portal to all federal, state and local government web resources and services.